Погода в Нонсане

Южная Корея     36°12′26″N   127°04′57″E
темп.,
°C
ветер,
м/с
пор.,
м/с
влажн.,
%
обл.,
%
осадки,
мм/ч
давл.,
гПа
погр.,
м
24 июня, чт
чт2400:00+17юв11931 0.1 101211
03:00+17в119499 0.1 101112
06:00+18всв2292100 0.1 101266
09:00+20в2282100 0.1 1012316
12:00+24ю2269100 0.3 1012816
15:00+25зюз5464100 0.6 10101177
18:00+23юз3469100 0.0 1010594
21:00+18юз118816 0.0 101111
25 июня, пт
пт2500:00+17ююв119180 0.0 101211
03:00+17ю009266 0.0 101111
06:00+17всв1190100 0.0 101111
09:00+23св0072100 0.0 1011461
12:00+26юз1160100 0.1 10101226
15:00+28юз4251100 0.1 10091583
18:00+24зюз3468100 0.0 1009312
21:00+20юз1182100 0.1 101017
26 июня, сб
сб2600:00+20ю2283100 0.0 101025
03:00+19ююз1195100 1.5 101019
06:00+19зсз0097100 4.3 101042
09:00+19юз1295100 6.8 1011213
12:00+20в1288100 0.8 1010311
15:00+21в1181100 0.8 1009458
18:00+22всв1175100 0.0 1009539
21:00+20св238591 0.0 100950
27 июня, вс
вс2700:00+19св239090 0.0 100866
03:00+17св229459 0.0 100829
06:00+17св229111 0.0 100845
09:00+22св3371100 0.0 1007509
12:00+27всв225653 0.0 10051288
15:00+29с224756 0.0 10031961
18:00+26всв246690 0.0 1002125
21:00+23ссв237477 0.4 100341
28 июня, пн
пн2800:00+20св118277 0.0 100411
03:00+20всв1186100 0.0 100311
06:00+20св118825 0.0 100417
09:00+24св12715 0.0 1004654
12:00+28св23515 0.0 10031736
15:00+29ссв3247100 0.0 10012052
18:00+26вюв236774 0.0 1002248
21:00+22св37760 0.1 1004181